Regional Weather Roundup
Issued by NWS Newport/Morehead, NC

Current Version | Previous Version | Text Only | Print | Product List | Glossary On
Versions: 1 2 3 4 5 6 7 8 9 10 11 12 13 14 15 16 17 18 19 20 21 22 23 24 25 26 27 28 29 30 31 32 33 34 35 36 37 38 39 40 41 42 43 44 45 46 47 48 49 50
000
ASUS42 KMHX 270522
RWRMHX
WEATHER ROUNDUP FOR EASTERN NORTH CAROLINA
NATIONAL WEATHER SERVICE NEWPORT/MOREHEAD CITY NC
100 AM EDT WED AUG 27 2014

NOTE: "FAIR" INDICATES FEW OR NO CLOUDS BELOW 12,000 FEET
WITH NO SIGNIFICANT WEATHER AND/OR OBSTRUCTIONS TO VISIBILITY

NCZ015>017-031-032-045>047-102-103-270600-
NORTH COAST

CITY           SKY/WX    TMP DP  RH WIND       PRES   REMARKS
EDENTON        CLEAR     66  65  96 CALM      30.05F
ELIZABETH CITY CLEAR     71  69  93 NE7       30.06S
KITTY HAWK     PTCLDY    74  71  89 N6        30.02F
MANTEO         MOCLDY    73  70  89 NE10      30.03F

$$

NCZ045>047-081-094-103-104-270600-
CENTRAL COAST

CITY           SKY/WX    TMP DP  RH WIND       PRES   REMARKS
FRISCO         CLOUDY    75  73  93 NE10G18   30.01S
SWANQUARTER      N/A     70 N/A N/A N5        30.00S

$$

NCZ095-097-098-100-101-270600-
SOUTHERN COAST

CITY           SKY/WX    TMP DP  RH WIND       PRES   REMARKS
BEAUFORT       CLEAR     73  69  87 NE12      30.01F
CEDAR ISLAND     N/A     75 N/A N/A N14G23    30.06S
JACKSONVILLE   CLEAR     69  65  86 N9        30.03S
NEWPORT        NOT AVBL
PINEY ISLAND   CLEAR     77  72  84 N15       30.01F
WILMINGTON     CLEAR     68  64  87 NE3       30.02F


$$

NCZ011>013-027>030-043-044-078>080-089-090>093-098-270600-
COASTAL PLAIN

CITY           SKY/WX    TMP DP  RH WIND       PRES   REMARKS
AHOSKIE        CLEAR     58  56  93 CALM      30.07F
CLINTON        PTCLDY    67  64  91 CALM      30.06F
ELIZABETHTOWN  CLEAR     66  63  90 CALM      30.06S
GOLDSBORO      PTCLDY    67  66  98 NE5       30.05S
GREENVILLE     PTCLDY    64  63  94 NE3       30.08S
HAVELOCK       CLEAR     71  67  87 N10       30.03F
KENANSVILLE    PTCLDY    66  63  88 CALM      30.06F
KINSTON        PTCLDY    64  63  94 N3        30.06F
NEW BERN       CLEAR     70  65  84 N6        30.05S
RICHLANDS      CLEAR     66  61  82 N3        30.04F
ROANOKE RAPIDS NOT AVBL
ROCKY MOUNT    CLEAR     62  58  86 CALM      30.08S
WASHINGTON     CLEAR     66  64  93 E6        30.06F
WHITEVILLE     CLEAR     69  63  82 N3        30.04F

$$

AMZ130-135-150-152-154-156-158-170-250-252-270-ANZ085-086-088-633-658-670-270600-
MARINE OBSERVATIONS

STATION/POSITION TIME  TEMP    WIND        PRES    WAVE   SWELL
                       AIR SEA DIR/SP/G            HT/PER HT/PER
                 (UTC) (F)     (DEG/KT/KT) (MB)    (FT/S) (FT/S)
CHESAPEAKE LIGHT 0500   73      50/ 14/ 14 1018.4
BUOY 44014       0500   77 78   40/ 16/ 17 1016.6    6/ 9   3/ 9
DUCK             0500   75 76   20/ 13/ 15 1016.5
2E DUCK          0500                        N/A     5/11   2/11
OREGON INLET     0500   75 78   20/ 14/ 19 1016.5
BUOY 44095       0500      76                N/A     7/11   3/11
20E OREGON INLET NOT AVBL
HATTERAS CG      0500   76 79   30/ 12/ 17 1016.3
DIAMOND BUOY     0500   78      10/ 17/ 23 1014.7    8/10   5/10
CAPE LOOKOUT     0500   74      10/ 16/ 20 1015.6
BEAUFORT LAB     0500   73 79   20/  9/ 13 1015.6
30 SE NEW RIVER  0500   77 81   30/ 21/ 25 1015.4    7/ 9   5/ 9
5 SE WRIGHTSVILL 0500   73 81   30/ 17/ 21   N/A
BUOY 41002       0436   80 81   20/ 23/ 29 1008.8   10/ 8   3/11
BUOY 41004       0500   81 83   20/ 17/ 21 1014.8    8/11   5/11

$$


USA.gov is the U.S. government's official web portal to all federal, state and local government web resources and services.